SAS1214 EKYT-EKCH

Flight info

Callsign SAS1214
Flight time 0h 29m
Altitude 17000
Route AAL M725 ADSEN DCT TNO
Aircraft A320/M-SDE3FGHIJ1RWXYZ/ALB1

Departure

Time 2026-04-26 12:21
Airport Aalborg Airport (EKYT)

Arrival

Time 2026-04-26 12:50
Airport Copenhagen Kastrup Airport (EKCH)
Time Latitude Longitude Altitude Speed Heading
2026-04-26 11:58 57.08612 9.87108 21 ft 0 kts 66°
2026-04-26 11:59 57.08612 9.87109 21 ft 0 kts 66°
2026-04-26 12:11 57.08611 9.87106 19 ft 1 kts 63°
2026-04-26 12:11 57.08622 9.87109 19 ft 3 kts 14°
2026-04-26 12:11 57.08612 9.87100 19 ft 3 kts 59°
2026-04-26 12:11 57.08609 9.87090 22 ft 1 kts 77°
2026-04-26 12:12 57.08605 9.87063 19 ft 3 kts 61°
2026-04-26 12:12 57.08594 9.87038 19 ft 3 kts 16°
2026-04-26 12:12 57.08578 9.87038 19 ft 3 kts 333°
2026-04-26 12:12 57.08561 9.87058 21 ft 3 kts 320°
2026-04-26 12:13 57.08546 9.87083 19 ft 2 kts 315°
2026-04-26 12:13 57.08539 9.87095 21 ft 1 kts 315°
2026-04-26 12:13 57.08538 9.87097 21 ft 0 kts 315°
2026-04-26 12:14 57.08540 9.87093 20 ft 1 kts 315°
2026-04-26 12:15 57.08561 9.87053 21 ft 9 kts 313°
2026-04-26 12:15 57.08608 9.86962 19 ft 11 kts 315°
2026-04-26 12:15 57.08666 9.86863 18 ft 12 kts 318°
2026-04-26 12:15 57.08736 9.86754 18 ft 14 kts 321°
2026-04-26 12:16 57.08821 9.86630 18 ft 17 kts 322°
2026-04-26 12:16 57.08922 9.86487 18 ft 19 kts 322°
2026-04-26 12:16 57.09036 9.86322 18 ft 21 kts 322°
2026-04-26 12:16 57.09157 9.86151 18 ft 21 kts 322°
2026-04-26 12:17 57.09266 9.85999 18 ft 15 kts 323°
2026-04-26 12:17 57.09344 9.85962 18 ft 12 kts 53°
2026-04-26 12:17 57.09356 9.86116 19 ft 13 kts 85°
2026-04-26 12:17 57.09367 9.86297 19 ft 15 kts 83°
2026-04-26 12:18 57.09380 9.86505 19 ft 18 kts 82°
2026-04-26 12:18 57.09397 9.86751 19 ft 21 kts 83°
2026-04-26 12:18 57.09414 9.87033 17 ft 24 kts 83°
2026-04-26 12:18 57.09434 9.87352 18 ft 25 kts 83°
2026-04-26 12:19 57.09453 9.87648 18 ft 17 kts 81°
2026-04-26 12:19 57.09538 9.87754 19 ft 16 kts
2026-04-26 12:19 57.09636 9.87643 18 ft 18 kts 299°
2026-04-26 12:19 57.09639 9.87552 17 ft 0 kts 263°
2026-04-26 12:20 57.09625 9.87335 16 ft 50 kts 263°
2026-04-26 12:20 57.09558 9.86277 22 ft 113 kts 264°
2026-04-26 12:20 57.09447 9.84548 106 ft 150 kts 262°
2026-04-26 12:20 57.09330 9.82547 487 ft 171 kts 263°
2026-04-26 12:21 57.09175 9.80164 724 ft 204 kts 262°
2026-04-26 12:21 57.08992 9.77402 1161 ft 230 kts 263°
2026-04-26 12:21 57.08479 9.74523 1849 ft 246 kts 236°
2026-04-26 12:21 57.07194 9.72446 2839 ft 252 kts 206°
2026-04-26 12:22 57.05473 9.71793 3846 ft 259 kts 178°
2026-04-26 12:22 57.03730 9.72682 4824 ft 264 kts 157°
2026-04-26 12:22 57.02066 9.74161 5806 ft 268 kts 155°
2026-04-26 12:22 57.00381 9.75723 6671 ft 275 kts 154°
2026-04-26 12:23 56.98648 9.77333 7440 ft 283 kts 154°
2026-04-26 12:23 56.96847 9.79007 8235 ft 291 kts 154°
2026-04-26 12:23 56.95021 9.80705 8988 ft 299 kts 153°
2026-04-26 12:23 56.93258 9.82833 9733 ft 308 kts 144°
2026-04-26 12:24 56.91515 9.85186 10436 ft 316 kts 143°
2026-04-26 12:24 56.89685 9.87697 10684 ft 340 kts 143°
2026-04-26 12:24 56.87733 9.90393 10879 ft 364 kts 143°
2026-04-26 12:25 56.83535 9.96179 11829 ft 386 kts 143°
2026-04-26 12:25 56.81378 9.99138 12504 ft 390 kts 143°
2026-04-26 12:25 56.79192 10.02114 13168 ft 395 kts 144°
2026-04-26 12:25 56.76977 10.05122 13835 ft 399 kts 144°
2026-04-26 12:26 56.74735 10.08169 14462 ft 404 kts 144°
2026-04-26 12:26 56.72472 10.11248 15048 ft 408 kts 144°
2026-04-26 12:26 56.70187 10.14346 15626 ft 412 kts 144°
2026-04-26 12:26 56.67874 10.17472 16193 ft 416 kts 144°
2026-04-26 12:27 56.65539 10.20619 16780 ft 419 kts 144°
2026-04-26 12:27 56.63184 10.23789 17192 ft 423 kts 145°
2026-04-26 12:27 56.60819 10.26969 17293 ft 424 kts 145°
2026-04-26 12:27 56.58447 10.30156 17308 ft 424 kts 145°
2026-04-26 12:28 56.56079 10.33340 17312 ft 424 kts 145°
2026-04-26 12:28 56.53713 10.36517 17313 ft 424 kts 145°
2026-04-26 12:28 56.51341 10.39692 17316 ft 423 kts 145°
2026-04-26 12:28 56.48971 10.42858 17318 ft 423 kts 145°
2026-04-26 12:29 56.46599 10.46021 17327 ft 425 kts 145°
2026-04-26 12:29 56.44216 10.49192 17324 ft 426 kts 145°
2026-04-26 12:29 56.39443 10.55537 17328 ft 426 kts 145°
2026-04-26 12:30 56.37057 10.58703 17327 ft 425 kts 145°
2026-04-26 12:30 56.34674 10.61853 17329 ft 424 kts 145°
2026-04-26 12:30 56.32262 10.65035 17328 ft 424 kts 145°
2026-04-26 12:31 56.27502 10.71309 17329 ft 424 kts 145°
2026-04-26 12:31 56.25119 10.74445 17328 ft 424 kts 145°
2026-04-26 12:31 56.22738 10.77573 17320 ft 424 kts 145°
2026-04-26 12:31 56.20356 10.80695 17326 ft 424 kts 145°
2026-04-26 12:32 56.17966 10.83790 17323 ft 423 kts 148°
2026-04-26 12:32 56.15409 10.86361 17327 ft 421 kts 158°
2026-04-26 12:32 56.09834 10.89145 17327 ft 413 kts 178°
2026-04-26 12:33 56.06976 10.89615 17326 ft 412 kts 179°
2026-04-26 12:33 56.04119 10.90076 17329 ft 412 kts 179°
2026-04-26 12:33 56.01261 10.90540 17328 ft 412 kts 179°
2026-04-26 12:33 55.98407 10.91005 17316 ft 413 kts 179°
2026-04-26 12:34 55.95503 10.91471 17049 ft 422 kts 179°
2026-04-26 12:34 55.92579 10.92120 16790 ft 426 kts 171°
2026-04-26 12:34 55.89763 10.93801 16534 ft 429 kts 156°
2026-04-26 12:34 55.87223 10.96590 16273 ft 430 kts 142°
2026-04-26 12:35 55.85105 11.00328 16030 ft 429 kts 128°
2026-04-26 12:35 55.83515 11.04778 15787 ft 425 kts 114°
2026-04-26 12:35 55.82512 11.09680 15521 ft 420 kts 102°
2026-04-26 12:35 55.81776 11.14706 15225 ft 418 kts 102°
2026-04-26 12:36 55.81047 11.19653 14932 ft 408 kts 102°
2026-04-26 12:36 55.80334 11.24462 14642 ft 397 kts 102°
2026-04-26 12:36 55.79633 11.29136 14355 ft 386 kts 102°
2026-04-26 12:36 55.78945 11.33684 14090 ft 377 kts 102°
2026-04-26 12:37 55.78266 11.38135 13770 ft 369 kts 102°
2026-04-26 12:37 55.77606 11.42486 13449 ft 361 kts 101°
2026-04-26 12:37 55.77162 11.46809 13128 ft 352 kts 94°
2026-04-26 12:37 55.76829 11.51133 12813 ft 346 kts 94°
2026-04-26 12:38 55.76502 11.55329 12499 ft 340 kts 94°
2026-04-26 12:38 55.76177 11.59461 12195 ft 336 kts 94°
2026-04-26 12:38 55.75855 11.63536 11890 ft 331 kts 94°
2026-04-26 12:38 55.75533 11.67559 11589 ft 327 kts 94°
2026-04-26 12:39 55.75212 11.71530 11291 ft 323 kts 94°
2026-04-26 12:39 55.74896 11.75458 10987 ft 320 kts 94°
2026-04-26 12:39 55.74584 11.79346 10697 ft 316 kts 94°
2026-04-26 12:39 55.74274 11.83187 10407 ft 313 kts 94°
2026-04-26 12:40 55.73963 11.86995 10140 ft 310 kts 94°
2026-04-26 12:40 55.73652 11.90751 9836 ft 306 kts 94°
2026-04-26 12:40 55.73344 11.94471 9490 ft 303 kts 94°
2026-04-26 12:40 55.72974 11.98128 9072 ft 301 kts 105°
2026-04-26 12:41 55.72005 12.01407 8732 ft 302 kts 129°
2026-04-26 12:41 55.70422 12.03798 8378 ft 299 kts 151°
2026-04-26 12:41 55.68611 12.05584 8046 ft 297 kts 152°
2026-04-26 12:41 55.66814 12.07333 7710 ft 293 kts 152°
2026-04-26 12:42 55.65053 12.09043 7375 ft 285 kts 152°
2026-04-26 12:42 55.63343 12.10703 7077 ft 275 kts 152°
2026-04-26 12:42 55.61692 12.12310 6789 ft 266 kts 152°
2026-04-26 12:42 55.60100 12.13860 6512 ft 257 kts 152°
2026-04-26 12:43 55.58551 12.15365 6219 ft 251 kts 153°
2026-04-26 12:43 55.57031 12.16842 5922 ft 248 kts 152°
2026-04-26 12:43 55.55522 12.18293 5629 ft 245 kts 153°
2026-04-26 12:43 55.54020 12.19719 5344 ft 246 kts 153°
2026-04-26 12:44 55.52521 12.21152 5050 ft 245 kts 153°
2026-04-26 12:44 55.51508 12.22120 4826 ft 245 kts 153°
2026-04-26 12:44 55.50024 12.23540 4504 ft 241 kts 153°
2026-04-26 12:44 55.48563 12.24963 4176 ft 239 kts 148°
2026-04-26 12:45 55.47425 12.27052 3883 ft 239 kts 121°
2026-04-26 12:45 55.46651 12.29609 3590 ft 235 kts 116°
2026-04-26 12:45 55.45963 12.32196 3328 ft 232 kts 107°
2026-04-26 12:45 55.45742 12.34958 3065 ft 227 kts 88°
2026-04-26 12:46 55.45827 12.37712 2806 ft 223 kts 75°
2026-04-26 12:46 55.46385 12.40206 2540 ft 216 kts 53°
2026-04-26 12:46 55.47366 12.42141 2281 ft 209 kts 36°
2026-04-26 12:46 55.48456 12.43806 2050 ft 202 kts 37°
2026-04-26 12:47 55.49473 12.45365 1997 ft 187 kts 36°
2026-04-26 12:47 55.50431 12.46835 1981 ft 174 kts 36°
2026-04-26 12:47 55.51316 12.48193 1982 ft 166 kts 36°
2026-04-26 12:47 55.52180 12.49517 1869 ft 163 kts 36°
2026-04-26 12:48 55.53022 12.50810 1693 ft 154 kts 36°
2026-04-26 12:48 55.53791 12.51996 1494 ft 142 kts 34°
2026-04-26 12:48 55.54520 12.53116 1310 ft 138 kts 35°
2026-04-26 12:48 55.55237 12.54218 1125 ft 136 kts 35°
2026-04-26 12:49 55.55954 12.55320 931 ft 137 kts 35°
2026-04-26 12:49 55.56667 12.56418 742 ft 135 kts 37°
2026-04-26 12:49 55.57375 12.57507 560 ft 135 kts 37°
2026-04-26 12:49 55.58095 12.58618 369 ft 136 kts 36°
2026-04-26 12:50 55.58802 12.59713 175 ft 135 kts 33°
2026-04-26 12:50 55.59517 12.60783 36 ft 135 kts 36°
2026-04-26 12:50 55.60139 12.61733 20 ft 95 kts 42°
2026-04-26 12:50 55.60503 12.62319 20 ft 46 kts 43°
2026-04-26 12:51 55.60688 12.62617 20 ft 30 kts 41°
2026-04-26 12:51 55.60847 12.62803 18 ft 24 kts 23°
2026-04-26 12:51 55.61006 12.62879 17 ft 24 kts 11°
2026-04-26 12:51 55.61151 12.62962 17 ft 21 kts 34°
2026-04-26 12:52 55.61268 12.63139 17 ft 23 kts 41°
2026-04-26 12:52 55.61396 12.63336 17 ft 26 kts 42°
2026-04-26 12:52 55.61522 12.63533 17 ft 23 kts 41°
2026-04-26 12:52 55.61646 12.63723 17 ft 24 kts 41°
2026-04-26 12:53 55.61770 12.63917 17 ft 24 kts 41°
2026-04-26 12:53 55.61898 12.64093 17 ft 25 kts 26°
2026-04-26 12:53 55.62049 12.64220 17 ft 24 kts 25°
2026-04-26 12:53 55.62200 12.64345 15 ft 22 kts 25°
2026-04-26 12:54 55.62280 12.64531 17 ft 20 kts 64°
2026-04-26 12:54 55.62337 12.64760 18 ft 19 kts 66°
2026-04-26 12:54 55.62314 12.64969 17 ft 20 kts 123°
2026-04-26 12:54 55.62276 12.65134 17 ft 14 kts 77°
2026-04-26 12:55 55.62362 12.65204 17 ft 16 kts 358°
2026-04-26 12:55 55.62476 12.65198 17 ft 17 kts 359°
2026-04-26 12:55 55.62588 12.65195 17 ft 15 kts 359°
2026-04-26 12:55 55.62675 12.65243 17 ft 13 kts 10°
2026-04-26 12:56 55.62724 12.65253 17 ft 0 kts
2026-04-26 12:56 55.62728 12.65254 17 ft 0 kts